Terminal Aerodrome Forecast
Issued by NWS

Current Version | Previous Version | Text Only | Print | Product List | Glossary On
Versions: 1 2 3 4 5 6 7 8 9 10 11 12 13 14 15 16 17 18 19 20 21 22 23 24 25 26 27 28 29 30 31 32 33 34 35 36 37 38 39 40 41 42 43 44 45 46 47 48 49 50
000
FTUS41 KCTP 060602 RRA
TAFBFD
TAF
KBFD 060602Z 0606/0706 13003KT 6SM BR BKN150
     FM061300 14005KT P6SM SCT050 BKN100
     FM061800 16005KT P6SM -SHRA SCT025 BKN050
     FM070000 17005KT 4SM BR VCSH OVC015=

USA.gov is the U.S. government's official web portal to all federal, state and local government web resources and services.